Printer-friendly version

IAU Minor Planet Center

Minor Planet Center

MPEC 2008-F34 : 2008 EN82

The following Minor Planet Electronic Circular may be linked-to from your own Web pages, but must not otherwise be redistributed electronically.


Read MPEC 2008-F33 Read MPEC 2008-F35


M.P.E.C. 2008-F34                                Issued 2008 Mar. 27, 02:22 UT

     The Minor Planet Electronic Circulars contain information on unusual
         minor planets and routine data on comets.  They are published
   on behalf of Commission 20 of the International Astronomical Union by the
          Minor Planet Center, Smithsonian Astrophysical Observatory,
                          Cambridge, MA 02138, U.S.A.

             Prepared using the Tamkin Foundation Computer Network

                              MPC@CFA.HARVARD.EDU
          URL http://www.cfa.harvard.edu/iau/mpc.html  ISSN 1523-6714

                                   2008 EN82

                           Revision to MPEC 2008-F13

Additional Observations:
     K08E82N  C2000 03 06.40645 10 56 31.87 -06 48 51.6          19.0 R EF034608
     K08E82N  C2000 03 06.41764 10 56 31.10 -06 48 44.5          19.0 R EF034608
     K08E82N  C2002 06 10.32903 16 51 14.43 -09 31 58.6          18.9 R EF034644
     K08E82N  C2002 06 10.37536 16 51 11.50 -09 31 49.3          19.1 R EF034644
     K08E82N  C2002 06 14.20728 16 47 17.36 -09 20 02.7          19.9 R EF034644
     K08E82N  C2002 06 14.27373 16 47 13.26 -09 19 50.9          19.7 R EF034644
     K08E82N  C2002 06 14.33612 16 47 09.38 -09 19 40.2          19.6 R EF034644
     K08E82N  C2008 03 26.27503 11 02 19.92 -04 35 27.6          19.9 V EF034F85
     K08E82N  C2008 03 26.30810 11 02 18.28 -04 35 07.9          19.7 V EF034F85
     K08E82N  C2008 03 26.34195 11 02 16.54 -04 34 47.3          19.1 V EF034F85

Observer details:
608 Haleakala-NEAT/MSSS.  Observers R. Bambery, E. Helin, S. Pravdo, M. Hicks,
    K. Lawrence, P. Kervin.  Measurer R. Matson.  1.2-m reflector + CCD.
644 Palomar Mountain/NEAT.  Observers E. F. Helin, S. Pravdo, K. Lawrence,
    K. Kuluhiwa, M. Hicks.  Measurer R. Matson.  1.2-m Schmidt + CCD.
F85 Tiki Observatory, Punaauia.  Observer N. Teamo.  0.41-m f/8.0
    Ritchey-Chretien + 3056x3056 CCD.

Orbital elements:
2008 EN82                                                Earth MOID = 0.1342 AU
Epoch 2008 May 14.0 TT = JDT 2454600.5                  MPC
M  82.42124              (2000.0)            P               Q
n   0.24873693     Peri.  194.62824     +0.74958947     -0.65514765
a   2.5040474      Node   207.03280     +0.62622569     +0.74810222
e   0.5522804      Incl.   11.97796     +0.21437586     +0.10547337
P   3.96           H   16.0           G   0.15           U   3
Residuals in seconds of arc
000306 608  0.3+  0.5+    080304 703  0.2-  0.5+    080312 703  0.8-  0.3+
000306 608  0.2-  0.3+    080304 703  0.6-  0.6-    080312 703  0.5-  0.4-
020610 644  0.4+  0.1+    080304 703  0.2-  0.2-    080312 703  0.8-  0.9+
020610 644  0.1+  0.3+    080308 704  1.7+  0.3-    080324 H55  0.2-  0.1-
020614 644  0.4-  0.2-    080308 704  0.3+  0.8-    080324 H55  0.3-  0.2-
020614 644  0.0   0.1+    080308 704  0.6+  0.9-    080324 H55  0.2-  0.0
020614 644  0.1-  0.1-    080309 704  0.6+  0.2+    080325 448  0.1-  0.0
080302 D29  0.6+  0.1+    080309 704  0.9+  0.7+    080325 448  0.1-  0.1-
080302 D29  0.6+  0.5+    080309 704  0.1+  0.2+    080325 448  0.3+  0.8-
080302 D29  0.6+  0.3-    080309 704  0.3+  0.4-    080326 F85  0.3-  0.1+
080302 D29  0.6+  0.2-    080309 704  0.0   0.6+    080326 F85  0.0   0.3-
080304 703  1.9-  0.4-    080312 703  0.5-  1.2+    080326 F85  0.7-  0.2-

Ephemeris:
2008 EN82                a,e,i = 2.50, 0.55, 12                  q = 1.1211
Date    TT    R. A. (2000) Decl.     Delta      r     Elong.  Phase     V
2008 03 25    11 03.37   -04 48.5    1.805    2.769   161.4     6.6    20.0
2008 04 04    10 56.13   -03 11.0    1.907    2.821   150.7    10.0    20.3
2008 04 14    10 51.27   -01 46.7    2.033    2.873   139.8    13.0    20.6
2008 04 24    10 48.89   -00 39.1    2.179    2.922   129.4    15.4    20.9
2008 05 04    10 48.85   +00 10.7    2.341    2.971   119.5    17.2    21.1
2008 05 14    10 50.91   +00 43.2    2.515    3.018   110.2    18.3    21.3
2008 05 24    10 54.79   +01 00.0    2.697    3.063   101.5    18.9    21.5
2008 06 03    11 00.18   +01 02.8    2.882    3.107    93.1    19.0    21.7
2008 06 13    11 06.84   +00 53.4    3.068    3.150    85.2    18.7    21.9
2008 06 23    11 14.52   +00 33.5    3.252    3.192    77.6    18.1    22.0

Gareth V. Williams           (C) Copyright 2008 MPC           M.P.E.C. 2008-F34

Read MPEC 2008-F33 Read MPEC 2008-F35


Our Web policy. Index to the CBAT/MPC/ICQ pages.


Valid HTML 4.01!